Regional Weather Roundup
Issued by NWS Nashville, TN

Home | Current Version | Previous Version | Text Only | Print | Product List | Glossary On
Versions: 1 2 3 4 5 6 7 8 9 10 11 12 13 14 15 16 17 18 19 20 21 22 23 24 25 26 27 28 29 30 31 32 33 34 35 36 37 38 39 40 41 42 43 44 45 46 47 48 49 50
000
ASUS44 KOHX 250510
RWROHX
MIDDLE TENNESSEE HOURLY WEATHER ROUNDUP
NATIONAL WEATHER SERVICE NASHVILLE TN
1200 AM CDT THU MAY 25 2017

NOTE: "FAIR" INDICATES FEW OR NO CLOUDS BELOW 12,000 FEET WITH
NO SIGNIFICANT WEATHER AND/OR OBSTRUCTIONS TO VISIBILITY.

* THESE REPORTS ARE NOT UNDER NWS QUALITY CONTROL AND MAY NOT
  REPORT WEATHER SUCH AS PRECIPITATION AND FOG.


TNZ005>011-023>034-057-059-062>066-078-080-250600
...NORTHERN MIDDLE TENNESSEE...

CITY           SKY/WX    TMP DP  RH WIND       PRES   REMARKS
CLARKSVILLE    PTCLDY    56  53  90 SW6       29.58S
CROSSVILLE     CLEAR     48  47  96 SW3       29.61R
GALLATIN       CLOUDY    57  54  88 VRB3      29.61S
DICKSON        CLOUDY    52  52 100 W5        29.60R
LEBANON        CLOUDY    55  52  90 SW6       29.57S
NASHVILLE      CLOUDY    58  55  90 NW7       29.61R
PORTLAND       CLOUDY    55  52  88 SW5       29.57S
SMYRNA         CLOUDY    57  55  93 SW3       29.61R
SPARTA         CLOUDY    54  52  94 SW3       29.58F
SPRINGFIELD    CLOUDY    55  54  94 SW6       29.57S
WEST NASHVILLE CLOUDY    57  55  94 CALM      29.58S
$$
TNZ056-058-060-061-075>077-079-093>097-250600
...SOUTHERN MIDDLE TENNESSEE...

CITY           SKY/WX    TMP DP  RH WIND       PRES   REMARKS
COLUMBIA       CLOUDY    55  54  94 SW7       29.60S
FAYETTEVILLE   CLOUDY    55  54  94 SW5       29.62S
MURFREESBORO   CLOUDY    58  53  83 SW7       29.60R
PULASKI        CLOUDY    55  54  94 CALM      29.63R
SHELBYVILLE    CLOUDY    55  54  94 S6        29.61S
TULLAHOMA      MOCLDY    54  52  94 S3        29.62F
WINCHESTER     CLOUDY    54  54 100 CALM        N/A
$$


...KEY TO REMARKS...
VSB - VISIBILITY IN MILES
WCI - WIND CHILL INDEX
HX  - HEAT INDEX




USA.gov is the U.S. government's official web portal to all federal, state and local government web resources and services.